This demonstration page uses our WeatherBlox Daily Observations layout. Learn more.

Left ArrowRight Arrow

39.08367, -84.50855

Hourly Observations for December 24, 2016

Temp ( °F °C ) Dew Point ( °F °C ) Humidity (%) Winds ( mph kmh ) Pressure ( in mb ) Visibility ( mi km ) Precip ( " mm )
12:53 am 00:53 Cloudy with Rain 40 4.4 39 3.9 97 97 SW 6 9 30.09 1019 4 6 0.08 2.03
1:53 am 01:53 Cloudy with Light Rain 41 5 41 5 100 100 SSW 5 7 30.09 1019 7 11 0.03 0.76
2:06 am 02:06 Cloudy with Light Rain 41 5 41 5 100 100 Calm 30.06 1018 5 8 0.00 0.00
2:53 am 02:53 Cloudy 42 5.6 42 5.6 100 100 SW 3 6 30.07 1018 7 11 0.00 0.03
3:53 am 03:53 Cloudy with Mist and Fog 43 6.1 43 6.1 100 100 SSW 8 13 30.07 1018 3 4 0.00 0.00
4:21 am 04:21 Cloudy with Mist and Fog 44 6.7 44 6.7 100 100 SSW 6 9 30.06 1018 3 5 0.00 0.03
4:40 am 04:40 Cloudy with Mist and Fog 45 7 45 7 100 100 SSW 5 7 30.06 1018 3 4 0.00 0.00
4:53 am 04:53 Cloudy with Mist and Fog 44 6.7 44 6.7 100 100 WSW 3 6 30.09 1019 3 5 0.01 0.25
5:02 am 05:02 Cloudy with Light Rain 45 7 45 7 100 100 Calm 30.09 1019 2 3 0.00 0.00
5:09 am 05:09 Cloudy with Light Rain 44 6.7 44 6.7 100 100 SSE 3 6 30.06 1018 2 3 0.00 0.03
5:21 am 05:21 Cloudy with Mist and Fog 44 6.7 44 6.7 100 100 S 5 7 30.06 1018 3 4 0.01 0.25
5:32 am 05:32 Cloudy with Mist and Fog 45 7 45 7 100 100 SSW 6 9 30.06 1018 3 5 0.00 0.00
5:53 am 05:53 Cloudy with Mist and Fog 43 6.1 43 6.1 100 100 SW 6 9 30.09 1019 3 4 0.01 0.25
6:16 am 06:16 Cloudy with Mist and Fog 45 7 45 7 100 100 SW 5 7 30.09 1019 3 5 0.00 0.00
6:53 am 06:53 Cloudy with Mist and Fog 45 7.2 45 7.2 100 100 SSW 5 7 30.10 1019 5 8 0.00 0.00
7:53 am 07:53 Cloudy with Mist and Fog 45 7.2 45 7.2 100 100 SW 7 11 30.13 1020 4 6 0.01 0.25
8:53 am 08:53 Cloudy with Mist and Fog 46 7.8 46 7.8 100 100 Calm 30.18 1022 4 6 0.00 0.00
9:53 am 09:53 Cloudy with Mist and Fog 45 7.2 44 6.7 97 97 NNW 8 13 30.22 1023 5 8 0.00 0.03
10:29 am 10:29 Cloudy 46 7.8 43 6.1 89 89 NW 6 9 30.24 1024 10 16 0.00 0.00
10:53 am 10:53 Cloudy 45 7.2 42 5.6 90 90 NNW 5 7 30.25 1024 10 16 0.00 0.00
11:01 am 11:01 Cloudy 46 7.8 43 6.1 89 89 Calm 30.24 1024 10 16 0.00 0.00
11:53 am 11:53 Cloudy 44 6.7 41 5 89 89 NNW 8 13 30.27 1025 10 16 0.00 0.00
12:53 pm 12:53 Cloudy 45 7.2 40 4.4 83 83 NNW 6 9 30.26 1025 10 16 0.00 0.00
1:53 pm 13:53 Mostly Cloudy 46 7.8 37 2.8 71 71 NW 5 7 30.25 1024 10 16 0.00 0.00
2:53 pm 14:53 Cloudy 46 7.8 36 2.2 68 68 Calm 30.26 1025 10 16 0.00 0.00
3:53 pm 15:53 Cloudy 46 7.8 38 3.3 73 73 Calm 30.27 1025 10 16 0.00 0.00
4:53 pm 16:53 Cloudy 45 7.2 38 3.3 77 77 Calm 30.29 1026 10 16 0.00 0.00
5:53 pm 17:53 Cloudy 43 6.1 38 3.3 82 82 Calm 30.31 1026 10 16 0.00 0.00
6:53 pm 18:53 Cloudy 43 6.1 38 3.3 82 82 Calm 30.32 1027 10 16 0.00 0.00
7:53 pm 19:53 Cloudy 41 5 39 3.9 93 93 Calm 30.33 1027 10 16 0.00 0.00
8:53 pm 20:53 Cloudy 40 4.4 39 3.9 97 97 E 3 6 30.34 1027 10 16 0.00 0.00
9:53 pm 21:53 Cloudy 41 5 38 3.3 89 89 NE 7 11 30.36 1028 10 16 0.00 0.00
10:53 pm 22:53 Cloudy 40 4.4 38 3.3 93 93 ENE 3 6 30.37 1028 9 14 0.00 0.00
11:53 pm 23:53 Cloudy 40 4.4 38 3.3 93 93 NE 6 9 30.36 1028 8 13 0.00 0.00

Powered by AerisWeather